Theta_e
308 311 312 312 312 313 313 315 317 319 319 320 319 319 318 315 313 311 308 308 308 307
300 301 302 303 305 307 308 308 309 309 312 315 315 317 317 314 312 310 308 307 307 306
298 299 299 300 300 300 301 302 303 304 304 306 310 312 313 313 312 309 308 307 306 306
295 296 297 297 297 298 298 299 299 300 301 301 302 304 306 308 309 308 308 306 305 304
292 293 293 293 294 295 295 296 296 297 297 298 299 301 300 301 303 304 304 305 303 303
290 290 289 290 290 291 291 292 292 293 293 295 296 298 299 300 301 302 302 303 302 302
288 288 288 288 288 288 288 289 289 290 289 290 291 291 293 295 298 299 300 300 300 300
286 286 286 286 286 286 286 287 287 287 288 288 289 289 290 291 293 293 294 295 296 297
284 284 284 284 284 284 285 285 285 286 286 286 287 289 291 291 290 290 290 291 292 291
282 282 283 282 282 283 283 284 284 284 284 285 285 288 290 290 288 289 289 289 288 288
281 281 281 280 280 282 283 282 283 283 283 284 284 288 289 289 288 288 288 288 288 287
280 279 279 278 279 280 281 282 282 283 282 282 283 286 288 288 287 286 286 287 287 286
279 277 277 278 278 279 279 280 282 282 282 281 281 284 286 287 286 285 285 286 285 284
280 278 278 279 279 278 277 280 280 280 282 280 280 281 285 286 285 284 284 285 284 284
Wind_Speed
6 3 3 3 2 3 3 4 5 6 7 8 6 8 9 8 9 12 12 15 13 10
5 5 4 4 3 3 4 4 5 5 8 11 11 8 8 7 9 10 11 12 12 11
6 6 5 4 5 5 5 4 5 6 6 8 9 10 10 9 7 10 9 9 12 12
8 7 6 6 6 6 6 5 6 5 6 7 8 9 10 12 12 12 11 10 11 14
4 4 5 6 7 7 7 6 6 6 6 7 8 9 9 11 11 12 13 12 11 13
11 11 11 10 9 8 8 7 7 6 7 8 8 9 9 10 11 12 12 12 12 12
8 8 8 9 9 9 9 9 10 8 8 7 8 8 9 9 12 12 11 12 11 11
6 6 7 8 8 9 8 8 8 9 10 8 7 6 9 9 10 11 12 11 11 12
3 4 5 6 7 7 7 7 7 8 8 9 6 14 16 14 10 9 10 10 9 8
5 6 6 7 7 7 7 7 8 8 8 9 9 16 16 14 8 9 9 9 8 7
5 6 6 6 6 8 7 9 9 9 9 10 8 17 17 14 7 7 8 9 9 9
8 9 10 10 11 10 10 11 8 8 9 10 10 17 17 14 7 7 8 8 8 7
8 7 9 8 9 8 8 10 8 10 9 9 10 14 17 14 6 8 7 6 5 9
9 9 9 8 8 7 9 10 10 10 8 9 9 9 17 17 7 7 7 6 5 4
Wind_Direction
30 14 355 347 316 276 255 256 266 260 259 248 244 233 225 221 217 219 222 229 228 226
30 35 19 354 334 311 299 289 286 271 270 275 273 257 242 227 226 220 222 227 228 228
23 23 17 7 357 338 318 306 302 292 277 275 270 270 268 261 246 227 227 226 228 229
21 16 18 16 359 345 321 317 297 286 282 275 271 262 257 259 261 255 252 231 229 233
17 16 19 8 352 341 330 320 301 296 280 275 269 262 254 258 258 260 259 255 242 242
7 9 3 358 352 348 333 317 318 312 298 285 273 267 256 253 257 254 257 256 253 254
1 356 347 341 342 341 341 337 338 329 308 296 291 279 273 271 271 266 261 259 253 256
341 337 332 334 331 328 332 333 327 325 326 319 311 300 294 277 266 264 267 262 260 256
304 302 310 313 319 314 316 316 312 319 311 315 312 307 307 296 280 267 261 265 259 252
342 335 330 319 318 321 319 317 318 314 311 310 303 309 312 306 283 274 267 264 263 261
339 330 323 321 317 323 319 315 314 312 311 308 304 313 316 311 291 282 275 268 266 266
345 337 337 337 337 330 323 323 311 305 304 305 306 310 313 314 296 285 274 263 262 263
329 327 319 314 319 316 306 299 300 301 292 289 294 298 304 307 290 288 289 280 263 267
314 306 296 297 309 307 309 304 303 290 289 288 292 296 308 306 297 284 286 283 283 287